STARLINK-30578, 58093

Orbit data source: Space-Track

STARLINK-30578, 58093 is a payload satellite owned by SpaceX/Seattle (US) in LEO that was launched on Wed, 18 Oct 2023 UTC via an FALCON 9 launch vehicle from the Air Force Eastern Test Range (AFETR). Payload-class satellites include a variety of spacecraft equipped with specific instruments for various scientific and technological missions. These include communications satellites like Starlink; space stations such as the ISS; scientific satellites like the Hubble; Earth observation satellites from companies like Planet Labs, Umbra, and HawkEye 360; GPS; miniature CubeSats for education and research; and military/defense satellites.

Loading next visibility...
Identifier
58093, 2023-160U
Orbit
LEO
Country
Flag of USUS
Related business
Manufacturer
SpaceX/Seattle
Mission
Operational Commercial Communications
Bus & Motor
STARLINK V2M, Unknown motor
Mass
730 kg wet, ~700 kg dry
Launch date (UTC)
2023-10-18 (3 years ago)
Launch vehicle
FALCON 9
Launch site
Air Force Eastern Test Range (AFETR)
Object type
Payload
Rocket body
Debris
Shape & HBR
Box + 2 Pan, 17.7 m
Radar Cross Section
33.884 m², Large (>1 m²)

Expand to show TLE details & history
Last TLE update: 2 days ago

TLE from 2 days ago
0 STARLINK-30578
1 58093U 23160U   26171.19115086  .00000464  00000-0  26382-4 0  9994
2 58093  43.0035 218.8723 0001630 270.1818  89.8847 15.27578448148626
Epoch: 2026-06-20T04:35Z
TLE epoch observation values (Epoch: 2026-06-20T04:35:15.434Z)
Latitude
-0°
Longitude
-118.35133°
Altitude
482.827 km
Speed
7.626 km/s
True Right ascension
14h 35m 29s
True Declination
0° 00' 00"
Sunlit
Object was in full shadow at epoch
Visualization orbit readout
Latitude
Unknown
Longitude
Unknown
Altitude
Unknown
Speed
Unknown
Apparent Right ascension
Unknown
Apparent Declination
Unknown
Sunlit
N/A
Visualization observer readout
Local Sidereal Time
00:39:41
Azimuth
Unknown
Elevation
Unknown
Doppler factor
Unknown
Orbital elements
Apogee altitude
486.117 km
Perigee altitude
483.88 km
Semi-major axis
6,863.135 km
Eccentricity
0.00016
Inclination
43.0035°
RAAN
218.8723°
Arg. of periapsis
270.1818°
True anomaly
89.90338°
Mean anomaly
89.8847°
Eccentric anomaly
89.89404°
Mean motion
3.81733 °/min
Orbital period
94.31 mins
BSTAR
0.000026382
Loading maneuver chart data...
Computing Atmospheric mass density...
Loading historical data...
Loading historical data...
Loading historical data...
Loading historical data...
Loading historical data...
Loading historical data...
Loading historical data...

Documentation

Showing up to 5 results
|